User: anonymous   Login
Location: Columbia
(38.9520°N, 92.3340°W)
Time: 02:55:16
(UTC-05:00)
Language:

Iridium 52 - Orbit

View from above orbital plane
View from above orbital plane
View from above satellite
View from above satellite

Ground track
Ground track

The orbit data is extracted from the following two-line orbital elements,

1 25169U 98010A   17143.57364875 +.00000114 +00000-0 +33763-4 0  9994
2 25169 086.3966 000.6854 0002093 087.3736 272.7699 14.34217947007971
Epoch (UTC): 23 May 2017 13:46:03
Eccentricity: 0.0002093
inclination: 86.3966°
perigee height: 776 km
apogee height: 779 km
right ascension of ascending node: 0.6854°
argument of perigee: 87.3736°
revolutions per day: 14.34217947
mean anomaly at epoch: 272.7699°
orbit number at epoch: 797

The dashed part of the orbit path shows where the satellite is in the earth's shadow,  

DLR